DW2671 Millis MA US current weather conditions

sailwx.info

Wind from 337

Air temperature 21.1° C
Dewpoint 20.9° C

Last reported at 2020-Aug-11 10:01 UTC.
Time now 2020-Aug-11 10:42 UTC

Location: N 42°09' W 071°23'.
View on Google Maps.

See reports from other nearby stations

  
Tides and Currents Weather Stations Pressure Air Temp Water Temp Dewpoint Dewpoint Depression Visibility Wind Speed Wind Dir Waves Ship Positions
date/time (UTC)wind fromknots sea level pressurealtimeterstation pressurevisibilityair tempwater tempwave heightnotes
2020-Aug-11 10:01 337 21.1
2020-Aug-11 09:51 337 21.1
2020-Aug-11 09:41 337 21.1
2020-Aug-11 09:31 337 21.1
2020-Aug-11 09:21 337 20.6
2020-Aug-11 09:11 337 21.1
2020-Aug-11 09:01 337 21.1
2020-Aug-11 08:51 337 21.1
2020-Aug-11 08:41 337 21.1
2020-Aug-11 08:31 337 21.1
2020-Aug-11 08:21 337 21.1
2020-Aug-11 08:11 337 21.1
2020-Aug-11 08:01 337 21.1
2020-Aug-11 07:51 337 21.7
2020-Aug-11 07:41 337 21.7
2020-Aug-11 07:31 337 21.7
2020-Aug-11 07:21 337 21.7
2020-Aug-11 07:11 337 22.2
2020-Aug-11 07:01 337 21.7
2020-Aug-11 06:51 337 21.7
2020-Aug-11 06:41 337 21.7
2020-Aug-11 06:31 337 21.7
2020-Aug-11 06:21 337 22.2
2020-Aug-11 06:11 337 22.2
2020-Aug-11 06:01 337 22.8
2020-Aug-11 05:51 337 22.8
2020-Aug-11 05:41 337 23.3
2020-Aug-11 05:31 337 23.3
2020-Aug-11 05:21 321 0 gusting 1 23.9
2020-Aug-11 05:11 180 23.9
2020-Aug-11 05:01 180 24.4
2020-Aug-11 04:51 201 0 gusting 1 24.4
2020-Aug-11 04:41 315 24.4
2020-Aug-11 04:31 173 1 gusting 1 25.0
2020-Aug-11 04:21 100 0 gusting 1 25.0
2020-Aug-11 04:11 331 1 gusting 1 25.0
2020-Aug-11 04:01 315 0 gusting 1 25.0
2020-Aug-11 03:51 180 25.0
2020-Aug-11 03:41 225 0 gusting 2 25.0
2020-Aug-11 03:31 262 0 gusting 2 24.4
2020-Aug-11 03:21 135 0 gusting 1 24.4
2020-Aug-11 03:11 135 25.0
2020-Aug-11 03:01 135 0 gusting 1 25.0
2020-Aug-11 02:51 135 25.0
2020-Aug-11 02:41 135 25.0
2020-Aug-11 02:31 135 25.6
2020-Aug-11 02:21 135 0 gusting 5 25.6
2020-Aug-11 02:11 270 26.1
2020-Aug-11 02:01 180 0 gusting 1 26.1
2020-Aug-11 01:51 270 26.7
2020-Aug-11 01:41 315 1 gusting 1 26.7
2020-Aug-11 01:31 255 2 gusting 5 26.7
2020-Aug-11 01:21 223 0 gusting 1 26.7
2020-Aug-11 01:11 187 1 gusting 5 26.7
2020-Aug-11 01:01 247 0 gusting 5 26.7
2020-Aug-11 00:51 135 27.2
2020-Aug-11 00:41 292 0 gusting 1 27.2
2020-Aug-11 00:31 159 0 gusting 1 27.8
2020-Aug-11 00:21 225 0 gusting 1 27.8
2020-Aug-11 00:11 216 2 gusting 6 28.3
2020-Aug-11 00:01 135 1 gusting 2 28.3
2020-Aug-10 23:51 205 0 gusting 1 28.3
2020-Aug-10 23:41 180 28.9
2020-Aug-10 23:31 247 0 gusting 1 29.4
2020-Aug-10 23:21 075 0 gusting 2 29.4
2020-Aug-10 23:11 248 0 gusting 1 30.0
2020-Aug-10 23:01 311 30.0
2020-Aug-10 22:51 206 1 gusting 2 30.6
2020-Aug-10 22:41 202 0 gusting 1 30.6
2020-Aug-10 22:31 202 0 gusting 2 31.1
2020-Aug-10 22:21 195 1 gusting 2 31.1
2020-Aug-10 22:11 236 0 gusting 2 31.1
2020-Aug-10 22:01 225 1 gusting 6 31.7
2020-Aug-10 21:51 169 2 gusting 5 31.7
2020-Aug-10 21:41 200 2 gusting 6 32.2
2020-Aug-10 21:31 327 0 gusting 1 32.2
2020-Aug-10 21:21 135 1 gusting 5 32.2
2020-Aug-10 21:11 225 2 gusting 2 32.2
2020-Aug-10 21:01 208 1 gusting 5 31.7
2020-Aug-10 20:51 202 0 gusting 2 31.7
2020-Aug-10 20:41 240 2 gusting 6 32.2
2020-Aug-10 20:31 339 1 gusting 5 32.8
2020-Aug-10 20:21 304 1 gusting 5 33.3
2020-Aug-10 20:11 246 1 gusting 6 33.3
2020-Aug-10 20:01 222 1 gusting 6 33.3
2020-Aug-10 19:51 283 0 gusting 10 33.9
2020-Aug-10 19:41 219 2 gusting 6 33.9
2020-Aug-10 19:31 111 2 gusting 6 34.4
2020-Aug-10 19:21 191 2 gusting 6 33.9
2020-Aug-10 19:11 280 3 gusting 6 33.9
2020-Aug-10 19:01 179 3 gusting 7 33.3
2020-Aug-10 18:51 232 3 gusting 8 33.3
2020-Aug-10 18:41 260 3 gusting 13 32.8
2020-Aug-10 18:31 250 3 gusting 13 32.8
2020-Aug-10 18:21 193 1 gusting 6 31.7
2020-Aug-10 18:11 232 3 gusting 7 32.8
2020-Aug-10 18:01 195 3 gusting 7 32.8
2020-Aug-10 17:51 245 4 gusting 7 33.3
2020-Aug-10 17:41 168 2 gusting 6 32.2
2020-Aug-10 17:31 230 4 gusting 10 32.8
2020-Aug-10 17:21 204 2 gusting 6 32.2
2020-Aug-10 17:11 310 3 gusting 6 32.2
2020-Aug-10 17:01 229 2 gusting 5 31.7
2020-Aug-10 16:51 202 2 gusting 7 32.2
2020-Aug-10 16:41 192 1 gusting 6 32.2
2020-Aug-10 16:31 222 2 gusting 5 31.7
2020-Aug-10 16:21 284 2 gusting 6 32.2
2020-Aug-10 16:11 222 3 gusting 6 31.7
2020-Aug-10 16:01 256 4 gusting 6 31.1
2020-Aug-10 15:51 223 2 gusting 6 31.1
2020-Aug-10 15:41 236 2 gusting 6 31.1
2020-Aug-10 15:31 250 2 gusting 6 31.1
2020-Aug-10 15:21 257 2 gusting 6 31.1
2020-Aug-10 15:11 281 1 gusting 6 30.6
2020-Aug-10 15:01 196 2 gusting 6 30.6
2020-Aug-10 14:51 255 2 gusting 6 30.0
2020-Aug-10 14:41 192 1 gusting 6 29.4
2020-Aug-10 14:31 328 1 gusting 6 28.9
2020-Aug-10 14:21 351 2 gusting 6 28.3
2020-Aug-10 14:11 264 0 gusting 5 28.3
2020-Aug-10 14:01 225 2 gusting 5 27.8
2020-Aug-10 13:51 229 2 gusting 5 26.7
2020-Aug-10 13:41 233 2 gusting 5 26.7
2020-Aug-10 13:31 204 1 gusting 5 26.7
2020-Aug-10 13:21 225 0 gusting 5 26.1
2020-Aug-10 13:11 201 0 gusting 5 25.6
2020-Aug-10 13:01 256 1 gusting 2 25.0
2020-Aug-10 12:51 243 0 gusting 5 24.4
2020-Aug-10 12:41 213 1 gusting 5 24.4
2020-Aug-10 12:31 180 0 gusting 1 23.3
2020-Aug-10 12:21 262 0 gusting 5 23.3
2020-Aug-10 12:11 225 1 gusting 5 22.8
2020-Aug-10 12:01 225 0 gusting 1 22.2
2020-Aug-10 11:51 171 3 gusting 6 22.2
2020-Aug-10 11:41 247 0 gusting 1 21.7
2020-Aug-10 11:31 299 1 gusting 1 21.7
2020-Aug-10 11:21 180 21.7
2020-Aug-10 11:11 202 2 gusting 1 21.1
2020-Aug-10 11:01 216 1 gusting 1 21.1
2020-Aug-10 10:51 225 1 gusting 1 20.6
2020-Aug-10 10:41 157 20.6
2020-Aug-10 10:31 153 0 gusting 1 20.0
2020-Aug-10 10:21 022 20.0
2020-Aug-10 10:11 018 20.0
2020-Aug-10 10:01 270 20.6
2020-Aug-10 09:51 292 20.6
2020-Aug-10 09:41 292 20.6
2020-Aug-10 09:31 292 20.6
2020-Aug-10 09:21 292 20.6
2020-Aug-10 09:11 292 0 gusting 1 20.6
2020-Aug-10 09:01 292 0 gusting 0 20.6
2020-Aug-10 08:51 292 20.6
2020-Aug-10 08:41 292 20.6
2020-Aug-10 08:31 292 20.6
2020-Aug-10 08:21 292 20.6
2020-Aug-10 08:11 292 21.1
2020-Aug-10 08:01 292 21.1
2020-Aug-10 07:51 292 21.1
2020-Aug-10 07:41 292 21.1
2020-Aug-10 07:31 292 21.1
2020-Aug-10 07:21 292 0 gusting 1 21.7
2020-Aug-10 07:11 225 0 gusting 1 21.7
2020-Aug-10 07:01 337 0 gusting 1 21.7
2020-Aug-10 06:51 180 0 gusting 1 21.7
2020-Aug-10 06:41 180 21.7
2020-Aug-10 06:31 176 0 gusting 1 21.7
2020-Aug-10 06:21 178 1 gusting 1 21.7
2020-Aug-10 06:11 180 21.7
2020-Aug-10 06:01 225 0 gusting 1 22.2
2020-Aug-10 05:51 180 0 gusting 1 22.2
2020-Aug-10 05:41 247 0 gusting 2 22.2
2020-Aug-10 05:31 277 22.2
2020-Aug-10 05:21 180 22.2
2020-Aug-10 05:11 180 22.2
2020-Aug-10 05:01 118 0 gusting 1 22.2
2020-Aug-10 04:51 202 1 gusting 1 22.2
2020-Aug-10 04:41 183 22.2
2020-Aug-10 04:31 180 0 gusting 1 22.2
2020-Aug-10 04:21 157 0 gusting 1 22.8
2020-Aug-10 04:11 157 1 gusting 5 22.8
2020-Aug-10 04:01 180 0 gusting 1 22.8
2020-Aug-10 03:51 157 22.8
2020-Aug-10 03:41 219 1 gusting 1 22.8
2020-Aug-10 03:31 225 0 gusting 5 23.3
2020-Aug-10 03:21 216 1 gusting 5 23.3
2020-Aug-10 03:11 171 1 gusting 6 23.3
2020-Aug-10 03:01 188 2 gusting 6 23.3
2020-Aug-10 02:51 228 2 gusting 6 23.3
2020-Aug-10 02:41 230 0 gusting 1 23.3
2020-Aug-10 02:31 067 0 gusting 1 23.3
2020-Aug-10 02:21 180 23.3
2020-Aug-10 02:11 180 1 gusting 5 23.9
2020-Aug-10 02:01 198 3 gusting 5 23.9
2020-Aug-10 01:51 308 0 gusting 2 23.9
2020-Aug-10 01:41 203 1 gusting 5 23.9
2020-Aug-10 01:31 173 0 gusting 1 24.4
2020-Aug-10 01:21 157 24.4
2020-Aug-10 01:11 180 1 gusting 5 24.4
2020-Aug-10 01:01 162 0 gusting 1 25.0
2020-Aug-10 00:51 202 0 gusting 1 25.6
2020-Aug-10 00:41 183 2 gusting 1 25.6
2020-Aug-10 00:31 033 0 gusting 1 26.1
2020-Aug-10 00:11 183 0 gusting 5 26.1
2020-Aug-10 00:01 223 1 gusting 6 26.7
2020-Aug-09 23:51 254 1 gusting 6 26.7
2020-Aug-09 23:41 180 1 gusting 5 27.2
2020-Aug-09 23:31 182 1 gusting 2 27.2
2020-Aug-09 23:21 172 1 gusting 6 27.8
2020-Aug-09 23:11 213 2 gusting 6 27.8
2020-Aug-09 23:01 129 1 gusting 5 28.3
2020-Aug-09 22:51 187 4 gusting 7 28.3
2020-Aug-09 22:41 174 2 gusting 7 28.9
2020-Aug-09 22:31 160 1 gusting 7 29.4
2020-Aug-09 22:21 232 2 gusting 7 29.4
2020-Aug-09 22:11 230 2 gusting 5 30.0
2020-Aug-09 22:01 169 1 gusting 6 30.0
2020-Aug-09 21:51 132 1 gusting 5 30.6
2020-Aug-09 21:41 210 2 gusting 6 30.6
2020-Aug-09 21:31 170 2 gusting 6 31.1
2020-Aug-09 21:21 213 3 gusting 7 31.1
2020-Aug-09 21:11 128 2 gusting 5 31.7
2020-Aug-09 21:01 192 1 gusting 5 31.1
2020-Aug-09 20:51 218 3 gusting 6 32.2
2020-Aug-09 20:41 179 2 gusting 6 31.7
2020-Aug-09 20:31 222 2 gusting 6 31.7
2020-Aug-09 20:21 197 1 gusting 5 31.1
2020-Aug-09 20:11 159 1 gusting 2 31.1
2020-Aug-09 20:01 201 3 gusting 6 30.6
2020-Aug-09 19:51 185 1 gusting 7 31.1
2020-Aug-09 19:41 160 1 gusting 10 31.7
2020-Aug-09 19:31 212 0 gusting 6 33.3
2020-Aug-09 19:21 208 2 gusting 7 32.8
2020-Aug-09 19:11 155 2 gusting 6 32.8
2020-Aug-09 19:01 323 4 gusting 6 32.8
2020-Aug-09 18:51 131 2 gusting 10 32.8
2020-Aug-09 18:41 220 1 gusting 7 32.2
2020-Aug-09 18:31 275 2 gusting 6 31.1
2020-Aug-09 18:21 142 2 gusting 6 31.7
2020-Aug-09 18:11 267 1 gusting 6 31.1
2020-Aug-09 18:01 240 2 gusting 5 31.7
2020-Aug-09 17:51 254 1 gusting 2 30.6
2020-Aug-09 17:41 208 2 gusting 7 31.1
2020-Aug-09 17:31 189 3 gusting 7 31.1
2020-Aug-09 17:21 231 5 gusting 8 31.7
2020-Aug-09 17:11 197 2 gusting 6 32.2
2020-Aug-09 17:01 166 2 gusting 6 31.1
2020-Aug-09 16:51 205 2 gusting 7 31.1
2020-Aug-09 16:41 224 4 gusting 7 31.1
2020-Aug-09 16:31 184 2 gusting 7 31.1
2020-Aug-09 16:21 247 1 gusting 5 30.0
2020-Aug-09 16:11 304 1 gusting 6 30.6
2020-Aug-09 16:01 276 3 gusting 6 31.1
2020-Aug-09 15:51 073 1 gusting 5 30.0
2020-Aug-09 15:41 220 2 gusting 7 30.0
2020-Aug-09 15:31 186 2 gusting 7 29.4
2020-Aug-09 15:21 157 2 gusting 6 29.4
2020-Aug-09 15:11 257 1 gusting 6 28.9
2020-Aug-09 15:01 233 5 gusting 7 28.3
2020-Aug-09 14:51 206 3 gusting 7 28.3
2020-Aug-09 14:41 235 2 gusting 5 27.8
2020-Aug-09 14:31 145 1 gusting 6 27.8
2020-Aug-09 14:21 203 2 gusting 6 27.2
2020-Aug-09 14:11 213 2 gusting 6 26.7
2020-Aug-09 14:01 344 0 gusting 1 26.1
2020-Aug-09 13:51 303 1 gusting 5 26.1
2020-Aug-09 13:41 307 2 gusting 5 25.6
2020-Aug-09 13:31 263 2 gusting 5 26.1
2020-Aug-09 13:21 232 1 gusting 5 25.6
2020-Aug-09 13:11 225 0 gusting 2 24.4
2020-Aug-09 13:01 282 2 gusting 5 24.4
2020-Aug-09 12:51 229 4 gusting 6 23.9
2020-Aug-09 12:41 191 1 gusting 5 23.3
2020-Aug-09 12:31 253 2 gusting 2 22.8
2020-Aug-09 12:21 206 0 gusting 5 22.2
2020-Aug-09 12:11 247 2 gusting 5 22.2
2020-Aug-09 12:01 225 0 gusting 1 21.7
2020-Aug-09 11:51 217 1 gusting 1 21.1
2020-Aug-09 11:41 270 1 gusting 5 20.6
2020-Aug-09 11:31 224 1 gusting 5 20.6
2020-Aug-09 11:21 157 1 gusting 2 20.0
2020-Aug-09 11:11 210 2 gusting 2 20.0
2020-Aug-09 11:01 272 0 gusting 1 20.0
2020-Aug-09 10:51 202 0 gusting 1 19.4
2020-Aug-09 10:41 180 0 gusting 1 19.4
2020-Aug-09 10:31 315 19.4